UAE929 OMDB-HECA

Flight info

Callsign UAE929
Flight time N/A
Altitude 40000
Route SENPA N571 ALPOB L768 VATIM L550 NOVPA N697 MENLI L677 CVO
Aircraft A343/H-SDE2E3FGHIJ4J5M1RWXY/LB1D1

Departure

Time N/A
Airport Dubai International Airport (OMDB)

Arrival

Time 2026-05-06 20:54
Airport Cairo International Airport (HECA)
Time Latitude Longitude Altitude Speed Heading
2026-05-06 17:52 26.02688 52.31481 39823 ft 424 kts 291°
2026-05-06 17:52 26.03999 52.28553 39828 ft 424 kts 291°
2026-05-06 17:52 26.06626 52.22673 39828 ft 424 kts 291°
2026-05-06 17:53 26.09245 52.16791 39848 ft 424 kts 291°
2026-05-06 17:53 26.11855 52.10923 39830 ft 423 kts 291°
2026-05-06 17:54 26.14020 52.06048 39831 ft 422 kts 291°
2026-05-06 17:54 26.16617 52.00188 39829 ft 422 kts 291°
2026-05-06 17:55 26.19236 51.94340 39832 ft 422 kts 291°
2026-05-06 17:55 26.21862 51.88492 39837 ft 422 kts 291°
2026-05-06 17:56 26.24440 51.82624 39843 ft 421 kts 290°
2026-05-06 17:56 26.27017 51.76782 39833 ft 419 kts 291°
2026-05-06 17:57 26.29609 51.70961 39838 ft 419 kts 291°
2026-05-06 17:57 26.32185 51.65184 39836 ft 419 kts 291°
2026-05-06 17:58 26.34801 51.59327 39837 ft 419 kts 291°
2026-05-06 17:58 26.37369 51.53503 39837 ft 418 kts 288°
2026-05-06 17:59 26.39433 51.47528 39841 ft 413 kts 285°
2026-05-06 17:59 26.41373 51.41496 39840 ft 413 kts 284°
2026-05-06 18:00 26.43285 51.35468 39840 ft 413 kts 284°
2026-05-06 18:00 26.45208 51.29435 39844 ft 413 kts 284°
2026-05-06 18:01 26.47138 51.23391 39845 ft 413 kts 284°
2026-05-06 18:01 26.49063 51.17351 39845 ft 413 kts 284°
2026-05-06 18:02 26.50985 51.11306 39840 ft 413 kts 284°
2026-05-06 18:02 26.52902 51.05272 39848 ft 412 kts 284°
2026-05-06 18:03 26.54814 50.99244 39848 ft 412 kts 284°
2026-05-06 18:03 26.56726 50.93206 39849 ft 412 kts 284°
2026-05-06 18:04 26.58628 50.87177 39844 ft 412 kts 284°
2026-05-06 18:04 26.60498 50.81126 39861 ft 412 kts 283°
2026-05-06 18:05 26.62364 50.75069 39858 ft 412 kts 283°
2026-05-06 18:05 26.64232 50.69017 39858 ft 411 kts 283°
2026-05-06 18:06 26.66053 50.63000 39855 ft 411 kts 283°
2026-05-06 18:06 26.67846 50.56890 39859 ft 411 kts 282°
2026-05-06 18:07 26.69618 50.50857 39862 ft 411 kts 283°
2026-05-06 18:07 26.71377 50.44738 39864 ft 410 kts 281°
2026-05-06 18:08 26.72931 50.38609 39867 ft 409 kts 280°
2026-05-06 18:08 26.74453 50.32488 39864 ft 408 kts 280°
2026-05-06 18:09 26.75991 50.26418 39865 ft 408 kts 280°
2026-05-06 18:09 26.77747 50.20325 39870 ft 410 kts 283°
2026-05-06 18:10 26.79597 50.14324 39867 ft 410 kts 283°
2026-05-06 18:10 26.81434 50.08282 39870 ft 410 kts 282°
2026-05-06 18:11 26.83241 50.02231 39878 ft 410 kts 282°
2026-05-06 18:11 26.85041 49.96179 39869 ft 409 kts 282°
2026-05-06 18:12 26.86828 49.90137 39870 ft 408 kts 282°
2026-05-06 18:12 26.88610 49.84100 39867 ft 408 kts 282°
2026-05-06 18:13 26.90391 49.78063 39863 ft 408 kts 282°
2026-05-06 18:13 26.92171 49.72022 39865 ft 408 kts 282°
2026-05-06 18:14 26.93950 49.65974 39873 ft 408 kts 282°
2026-05-06 18:14 26.95723 49.59940 39866 ft 408 kts 282°
2026-05-06 18:15 26.97494 49.53900 39864 ft 408 kts 282°
2026-05-06 18:15 26.99261 49.47862 39866 ft 408 kts 281°
2026-05-06 18:16 27.01118 49.41830 39870 ft 413 kts 286°
2026-05-06 18:16 27.03769 49.36057 39874 ft 418 kts 291°
2026-05-06 18:17 27.06626 49.30364 39887 ft 419 kts 292°
2026-05-06 18:17 27.09515 49.24675 39892 ft 420 kts 291°
2026-05-06 18:18 27.12394 49.18973 39895 ft 420 kts 291°
2026-05-06 18:18 27.15245 49.13294 39901 ft 420 kts 291°
2026-05-06 18:19 27.18104 49.07584 39907 ft 420 kts 291°
2026-05-06 18:19 27.20956 49.01883 39905 ft 420 kts 291°
2026-05-06 18:20 27.23817 48.96166 39903 ft 420 kts 291°
2026-05-06 18:20 27.26670 48.90440 39906 ft 420 kts 291°
2026-05-06 18:21 27.29519 48.84712 39906 ft 420 kts 291°
2026-05-06 18:21 27.32367 48.78981 39933 ft 420 kts 291°
2026-05-06 18:22 27.35211 48.73255 39922 ft 419 kts 291°
2026-05-06 18:22 27.38045 48.67541 39921 ft 419 kts 291°
2026-05-06 18:23 27.40883 48.61810 39923 ft 418 kts 290°
2026-05-06 18:23 27.43709 48.56097 39929 ft 418 kts 290°
2026-05-06 18:24 27.46533 48.50379 39928 ft 417 kts 290°
2026-05-06 18:24 27.49351 48.44668 39930 ft 416 kts 290°
2026-05-06 18:25 27.52157 48.38972 39933 ft 416 kts 290°
2026-05-06 18:25 27.54956 48.33282 39933 ft 415 kts 290°
2026-05-06 18:26 27.57756 48.27583 39931 ft 415 kts 290°
2026-05-06 18:26 27.60554 48.21901 39939 ft 414 kts 290°
2026-05-06 18:27 27.63338 48.16233 39934 ft 413 kts 290°
2026-05-06 18:27 27.66113 48.10571 39936 ft 412 kts 290°
2026-05-06 18:28 27.68885 48.04908 39938 ft 412 kts 290°
2026-05-06 18:28 27.71659 47.99244 39951 ft 412 kts 289°
2026-05-06 18:29 27.74417 47.93579 39940 ft 411 kts 289°
2026-05-06 18:29 27.77162 47.87929 41163 ft 411 kts 290°
2026-05-06 18:30 27.78541 47.85086 39846 ft 415 kts 290°
2026-05-06 18:30 27.79929 47.82226 39940 ft 416 kts 289°
2026-05-06 18:30 27.82703 47.76512 39949 ft 413 kts 289°
2026-05-06 18:31 27.85041 47.70700 39955 ft 401 kts 282°
2026-05-06 18:31 27.86938 47.64789 39952 ft 399 kts 281°
2026-05-06 18:32 27.88766 47.58860 39959 ft 399 kts 280°
2026-05-06 18:32 27.90591 47.52921 39963 ft 400 kts 280°
2026-05-06 18:33 27.92422 47.46983 39961 ft 400 kts 281°
2026-05-06 18:33 27.94260 47.41035 39969 ft 400 kts 280°
2026-05-06 18:34 27.96081 47.35132 39967 ft 400 kts 280°
2026-05-06 18:34 27.97912 47.29183 39969 ft 401 kts 280°
2026-05-06 18:35 27.99742 47.23226 39969 ft 401 kts 280°
2026-05-06 18:35 28.01572 47.17263 39971 ft 401 kts 280°
2026-05-06 18:36 28.03399 47.11295 39970 ft 402 kts 280°
2026-05-06 18:36 28.05223 47.05327 39976 ft 401 kts 280°
2026-05-06 18:37 28.06750 47.00326 39973 ft 401 kts 280°
2026-05-06 18:37 28.08860 46.93397 41099 ft 401 kts 281°
2026-05-06 18:38 28.09773 46.90387 39914 ft 405 kts 280°
2026-05-06 18:38 28.10690 46.87369 39963 ft 407 kts 280°
2026-05-06 18:38 28.12653 46.81358 39970 ft 405 kts 281°
2026-05-06 18:39 28.14677 46.75426 39973 ft 403 kts 281°
2026-05-06 18:40 28.17665 46.66536 39972 ft 402 kts 281°
2026-05-06 18:40 28.19632 46.60611 39973 ft 402 kts 281°
2026-05-06 18:41 28.21596 46.54679 39980 ft 402 kts 281°
2026-05-06 18:41 28.23229 46.49743 39976 ft 402 kts 281°
2026-05-06 18:42 28.25195 46.43791 39904 ft 405 kts 281°
2026-05-06 18:42 28.27175 46.37785 39983 ft 407 kts 281°
2026-05-06 18:43 28.29154 46.31791 39990 ft 404 kts 281°
2026-05-06 18:43 28.31116 46.25824 39987 ft 404 kts 281°
2026-05-06 18:44 28.33076 46.19849 40004 ft 404 kts 281°
2026-05-06 18:44 28.35031 46.13884 39992 ft 403 kts 281°
2026-05-06 18:45 28.37061 46.07885 39995 ft 407 kts 283°
2026-05-06 18:45 28.39282 46.02006 39993 ft 408 kts 283°
2026-05-06 18:46 28.41539 45.96094 39991 ft 408 kts 283°
2026-05-06 18:46 28.43763 45.90163 39988 ft 408 kts 283°
2026-05-06 18:47 28.45968 45.84224 39982 ft 407 kts 283°
2026-05-06 18:47 28.48164 45.78284 39981 ft 407 kts 283°
2026-05-06 18:48 28.50358 45.72345 39984 ft 408 kts 283°
2026-05-06 18:48 28.52550 45.66402 39981 ft 408 kts 283°
2026-05-06 18:49 28.54740 45.60458 39993 ft 407 kts 283°
2026-05-06 18:49 28.56927 45.54512 39986 ft 407 kts 283°
2026-05-06 18:50 28.59111 45.48564 39984 ft 407 kts 283°
2026-05-06 18:50 28.61291 45.42617 39988 ft 408 kts 283°
2026-05-06 18:51 28.63470 45.36665 39994 ft 408 kts 283°
2026-05-06 18:51 28.65634 45.30746 39982 ft 407 kts 283°
2026-05-06 18:52 28.67789 45.24838 39985 ft 407 kts 283°
2026-05-06 18:52 28.69976 45.18836 39981 ft 407 kts 283°
2026-05-06 18:53 28.72128 45.12918 39984 ft 408 kts 283°
2026-05-06 18:53 28.74298 45.06942 39983 ft 408 kts 283°
2026-05-06 18:54 28.76459 45.00980 39985 ft 408 kts 282°
2026-05-06 18:54 28.78620 44.95019 39984 ft 402 kts 283°
2026-05-06 18:55 28.80739 44.89172 39983 ft 398 kts 283°
2026-05-06 18:55 28.82840 44.83339 39985 ft 397 kts 283°
2026-05-06 18:56 28.84924 44.77502 39983 ft 396 kts 281°
2026-05-06 18:56 28.86199 44.71532 39987 ft 382 kts 270°
2026-05-06 18:57 28.86776 44.65514 39985 ft 381 kts 268°
2026-05-06 18:57 28.87241 44.59505 39992 ft 381 kts 268°
2026-05-06 18:58 28.87700 44.53475 39984 ft 381 kts 268°
2026-05-06 18:58 28.88170 44.47453 39981 ft 381 kts 268°
2026-05-06 18:59 28.88645 44.41427 40014 ft 382 kts 268°
2026-05-06 18:59 28.89118 44.35402 39986 ft 381 kts 268°
2026-05-06 19:00 28.89589 44.29377 39984 ft 381 kts 268°
2026-05-06 19:00 28.90052 44.23389 39987 ft 381 kts 268°
2026-05-06 19:01 28.90520 44.17323 39993 ft 381 kts 268°
2026-05-06 19:01 28.90981 44.11306 39987 ft 381 kts 268°
2026-05-06 19:02 28.91437 44.05319 39980 ft 381 kts 268°
2026-05-06 19:02 28.91894 43.99282 39981 ft 381 kts 268°
2026-05-06 19:03 28.92347 43.93261 39984 ft 381 kts 268°
2026-05-06 19:03 28.92797 43.87242 39950 ft 381 kts 268°
2026-05-06 19:04 28.93245 43.81208 39993 ft 381 kts 268°
2026-05-06 19:04 28.93691 43.75178 39984 ft 381 kts 268°
2026-05-06 19:05 28.94134 43.69157 39990 ft 381 kts 268°
2026-05-06 19:05 28.94573 43.63128 40004 ft 381 kts 268°
2026-05-06 19:06 28.95010 43.57102 39988 ft 381 kts 268°
2026-05-06 19:06 28.95447 43.51065 39988 ft 381 kts 268°
2026-05-06 19:07 28.95883 43.45033 39988 ft 381 kts 268°
2026-05-06 19:07 28.96310 43.38992 39993 ft 381 kts 268°
2026-05-06 19:08 28.96734 43.32962 39993 ft 381 kts 268°
2026-05-06 19:08 28.97157 43.26930 39993 ft 382 kts 268°
2026-05-06 19:09 28.97578 43.20890 39995 ft 382 kts 268°
2026-05-06 19:09 28.97998 43.14835 39999 ft 382 kts 268°
2026-05-06 19:10 28.98415 43.08786 40002 ft 382 kts 268°
2026-05-06 19:10 28.98830 43.02729 40002 ft 382 kts 268°
2026-05-06 19:11 28.99239 42.96674 40006 ft 388 kts 267°
2026-05-06 19:11 28.99653 42.90465 40008 ft 396 kts 268°
2026-05-06 19:12 29.00075 42.84150 40007 ft 400 kts 268°
2026-05-06 19:12 29.00502 42.77822 40005 ft 399 kts 268°
2026-05-06 19:13 29.00924 42.71511 40007 ft 398 kts 268°
2026-05-06 19:13 29.01337 42.65215 40011 ft 398 kts 267°
2026-05-06 19:14 29.01748 42.58904 40016 ft 399 kts 268°
2026-05-06 19:14 29.02155 42.52578 40012 ft 401 kts 268°
2026-05-06 19:15 29.02564 42.46218 40012 ft 401 kts 268°
2026-05-06 19:15 29.02970 42.39860 40035 ft 401 kts 268°
2026-05-06 19:16 29.03373 42.33497 40021 ft 402 kts 268°
2026-05-06 19:16 29.03772 42.27136 40026 ft 402 kts 268°
2026-05-06 19:17 29.04170 42.20768 40026 ft 402 kts 268°
2026-05-06 19:17 29.04564 42.14404 40023 ft 401 kts 268°
2026-05-06 19:18 29.04954 42.08043 40029 ft 401 kts 268°
2026-05-06 19:18 29.05340 42.01692 40035 ft 401 kts 268°
2026-05-06 19:19 29.05724 41.95331 40036 ft 401 kts 268°
2026-05-06 19:19 29.06102 41.89035 40022 ft 399 kts 268°
2026-05-06 19:20 29.06475 41.82708 40041 ft 399 kts 268°
2026-05-06 19:20 29.06844 41.76385 40059 ft 398 kts 268°
2026-05-06 19:21 29.07210 41.70078 40048 ft 397 kts 268°
2026-05-06 19:21 29.07575 41.63736 40048 ft 397 kts 268°
2026-05-06 19:22 29.07933 41.57474 40046 ft 397 kts 268°
2026-05-06 19:22 29.08290 41.51185 40053 ft 396 kts 268°
2026-05-06 19:23 29.08644 41.44902 40052 ft 396 kts 268°
2026-05-06 19:23 29.08999 41.38626 40057 ft 396 kts 268°
2026-05-06 19:24 29.09348 41.32356 40063 ft 396 kts 268°
2026-05-06 19:24 29.09694 41.26077 40062 ft 395 kts 268°
2026-05-06 19:24 29.09866 41.22937 40680 ft 395 kts 269°
2026-05-06 19:25 29.10037 41.19781 39993 ft 399 kts 268°
2026-05-06 19:25 29.10380 41.13433 40066 ft 398 kts 268°
2026-05-06 19:26 29.10723 41.07153 40066 ft 394 kts 267°
2026-05-06 19:26 29.11057 41.00911 40065 ft 394 kts 267°
2026-05-06 19:27 29.11387 40.94662 40064 ft 394 kts 267°
2026-05-06 19:27 29.11714 40.88415 40075 ft 394 kts 268°
2026-05-06 19:28 29.12040 40.82145 40070 ft 395 kts 268°
2026-05-06 19:28 29.12364 40.75885 40068 ft 395 kts 267°
2026-05-06 19:29 29.12683 40.69616 40071 ft 395 kts 267°
2026-05-06 19:29 29.12947 40.64401 40076 ft 395 kts 267°
2026-05-06 19:30 29.13221 40.58148 40074 ft 393 kts 264°
2026-05-06 19:30 29.13103 40.51900 40056 ft 391 kts 263°
2026-05-06 19:31 29.12905 40.45690 40082 ft 391 kts 263°
2026-05-06 19:31 29.12581 40.36356 40072 ft 392 kts 263°
2026-05-06 19:32 29.12368 40.30121 40073 ft 392 kts 263°
2026-05-06 19:32 29.12155 40.23886 40076 ft 393 kts 263°
2026-05-06 19:33 29.11939 40.17634 40071 ft 395 kts 263°
2026-05-06 19:33 29.11719 40.11352 40073 ft 395 kts 263°
2026-05-06 19:34 29.11495 40.05082 40071 ft 395 kts 263°
2026-05-06 19:34 29.11269 39.98805 40070 ft 396 kts 263°
2026-05-06 19:35 29.11042 39.92548 40070 ft 397 kts 263°
2026-05-06 19:35 29.10883 39.86232 40070 ft 398 kts 265°
2026-05-06 19:36 29.10950 39.79895 40077 ft 399 kts 266°
2026-05-06 19:36 29.11029 39.73515 40062 ft 399 kts 266°
2026-05-06 19:37 29.11069 39.67161 40065 ft 399 kts 265°
2026-05-06 19:37 29.11087 39.60819 40060 ft 399 kts 265°
2026-05-06 19:38 29.11099 39.54518 40062 ft 399 kts 265°
2026-05-06 19:38 29.11109 39.48174 40067 ft 399 kts 265°
2026-05-06 19:39 29.11118 39.41823 40067 ft 399 kts 265°
2026-05-06 19:39 29.11124 39.35476 40067 ft 399 kts 265°
2026-05-06 19:40 29.11127 39.29136 40054 ft 399 kts 265°
2026-05-06 19:40 29.11126 39.22792 40057 ft 399 kts 265°
2026-05-06 19:41 29.11123 39.16445 40055 ft 399 kts 265°
2026-05-06 19:41 29.11117 39.10100 40052 ft 399 kts 265°
2026-05-06 19:42 29.11107 39.03746 40045 ft 400 kts 265°
2026-05-06 19:42 29.11095 38.97390 40045 ft 400 kts 265°
2026-05-06 19:43 29.11079 38.91048 40044 ft 399 kts 265°
2026-05-06 19:43 29.11053 38.84687 40047 ft 400 kts 265°
2026-05-06 19:44 29.11025 38.78324 40043 ft 400 kts 265°
2026-05-06 19:44 29.10995 38.71961 40046 ft 400 kts 265°
2026-05-06 19:45 29.10962 38.65598 40043 ft 400 kts 265°
2026-05-06 19:45 29.10926 38.59239 40043 ft 400 kts 265°
2026-05-06 19:46 29.10886 38.52869 40041 ft 400 kts 265°
2026-05-06 19:46 29.10843 38.46502 40039 ft 400 kts 265°
2026-05-06 19:47 29.10798 38.40131 40040 ft 400 kts 265°
2026-05-06 19:47 29.10753 38.33771 40037 ft 400 kts 265°
2026-05-06 19:48 29.10701 38.27446 40034 ft 400 kts 265°
2026-05-06 19:48 29.10643 38.21082 40031 ft 400 kts 265°
2026-05-06 19:49 29.10584 38.14721 40029 ft 401 kts 265°
2026-05-06 19:49 29.10523 38.08342 40023 ft 401 kts 265°
2026-05-06 19:50 29.10458 38.01969 39990 ft 401 kts 265°
2026-05-06 19:50 29.10391 37.95591 40028 ft 401 kts 265°
2026-05-06 19:51 29.10321 37.89212 40021 ft 402 kts 265°
2026-05-06 19:51 29.10247 37.82824 40015 ft 402 kts 265°
2026-05-06 19:52 29.10171 37.76426 40014 ft 402 kts 265°
2026-05-06 19:52 29.10091 37.70035 40024 ft 402 kts 265°
2026-05-06 19:53 29.10009 37.63636 40012 ft 403 kts 265°
2026-05-06 19:53 29.09924 37.57228 40013 ft 403 kts 265°
2026-05-06 19:54 29.09835 37.50817 40015 ft 403 kts 265°
2026-05-06 19:54 29.09776 37.44405 40015 ft 404 kts 265°
2026-05-06 19:55 29.09735 37.37976 40013 ft 405 kts 265°
2026-05-06 19:55 29.09690 37.31527 40002 ft 405 kts 265°
2026-05-06 19:56 29.09638 37.25087 40007 ft 405 kts 265°
2026-05-06 19:56 29.09580 37.18636 40007 ft 406 kts 265°
2026-05-06 19:57 29.09519 37.12178 40006 ft 407 kts 265°
2026-05-06 19:57 29.09455 37.05702 40004 ft 407 kts 265°
2026-05-06 19:58 29.09389 36.99223 40001 ft 407 kts 265°
2026-05-06 19:58 29.09318 36.92744 39995 ft 408 kts 265°
2026-05-06 19:59 29.09245 36.86255 39991 ft 408 kts 265°
2026-05-06 19:59 29.09169 36.79765 39991 ft 408 kts 265°
2026-05-06 20:00 29.09090 36.73271 40014 ft 409 kts 265°
2026-05-06 20:00 29.09008 36.66787 39990 ft 407 kts 265°
2026-05-06 20:01 29.08922 36.60310 39981 ft 407 kts 265°
2026-05-06 20:01 29.08834 36.53892 39983 ft 407 kts 265°
2026-05-06 20:02 29.08743 36.47426 39989 ft 407 kts 265°
2026-05-06 20:02 29.08596 36.40968 39993 ft 406 kts 264°
2026-05-06 20:03 29.08403 36.34514 39993 ft 406 kts 264°
2026-05-06 20:03 29.08214 36.28063 39985 ft 406 kts 264°
2026-05-06 20:04 29.08030 36.21606 40002 ft 406 kts 264°
2026-05-06 20:04 29.07846 36.15149 39995 ft 407 kts 264°
2026-05-06 20:05 29.07660 36.08692 39997 ft 407 kts 264°
2026-05-06 20:05 29.07470 36.02230 39996 ft 407 kts 264°
2026-05-06 20:06 29.07277 35.95764 39987 ft 407 kts 264°
2026-05-06 20:06 29.07081 35.89304 39995 ft 407 kts 264°
2026-05-06 20:07 29.06882 35.82849 40005 ft 406 kts 264°
2026-05-06 20:07 29.06681 35.76402 40009 ft 406 kts 264°
2026-05-06 20:08 29.06474 35.69928 40021 ft 407 kts 264°
2026-05-06 20:08 29.06265 35.63462 40023 ft 408 kts 264°
2026-05-06 20:09 29.06053 35.56981 40014 ft 408 kts 264°
2026-05-06 20:09 29.05838 35.50504 40015 ft 408 kts 264°
2026-05-06 20:10 29.05619 35.44021 40027 ft 409 kts 264°
2026-05-06 20:10 29.05396 35.37520 40022 ft 409 kts 264°
2026-05-06 20:11 29.05171 35.31023 40026 ft 409 kts 264°
2026-05-06 20:11 29.04942 35.24522 40034 ft 409 kts 264°
2026-05-06 20:12 29.04710 35.18026 40006 ft 409 kts 264°
2026-05-06 20:12 29.04475 35.11525 40003 ft 409 kts 264°
2026-05-06 20:13 29.04237 35.05032 40012 ft 410 kts 264°
2026-05-06 20:13 29.03996 34.98529 40024 ft 410 kts 264°
2026-05-06 20:14 29.03752 34.92026 39992 ft 409 kts 264°
2026-05-06 20:14 29.03505 34.85538 40003 ft 409 kts 264°
2026-05-06 20:15 29.03344 34.80134 40006 ft 410 kts 266°
2026-05-06 20:15 29.03258 34.72564 40025 ft 410 kts 266°
2026-05-06 20:16 29.03723 34.66053 40013 ft 415 kts 278°
2026-05-06 20:16 29.05067 34.60708 40024 ft 418 kts 283°
2026-05-06 20:17 29.06901 34.54430 40028 ft 420 kts 284°
2026-05-06 20:17 29.08794 34.48114 40039 ft 420 kts 284°
2026-05-06 20:18 29.10663 34.41791 40054 ft 420 kts 284°
2026-05-06 20:18 29.12514 34.35459 40055 ft 420 kts 284°
2026-05-06 20:19 29.14359 34.29126 40064 ft 420 kts 284°
2026-05-06 20:19 29.16201 34.22791 40061 ft 420 kts 283°
2026-05-06 20:20 29.18041 34.16445 40077 ft 420 kts 284°
2026-05-06 20:20 29.19879 34.10111 40076 ft 419 kts 284°
2026-05-06 20:21 29.21706 34.03798 40077 ft 419 kts 284°
2026-05-06 20:21 29.23540 33.97449 40080 ft 419 kts 284°
2026-05-06 20:22 29.25372 33.91106 40082 ft 419 kts 284°
2026-05-06 20:22 29.27192 33.84782 40076 ft 419 kts 284°
2026-05-06 20:23 29.29010 33.78443 40078 ft 418 kts 284°
2026-05-06 20:23 29.30826 33.72101 40078 ft 418 kts 284°
2026-05-06 20:24 29.32635 33.65777 40076 ft 418 kts 284°
2026-05-06 20:24 29.34447 33.59430 40079 ft 419 kts 284°
2026-05-06 20:25 29.36253 33.53089 40083 ft 419 kts 284°
2026-05-06 20:25 29.38058 33.46743 40081 ft 419 kts 284°
2026-05-06 20:26 29.39858 33.40398 40081 ft 419 kts 284°
2026-05-06 20:26 29.41658 33.34043 40077 ft 419 kts 283°
2026-05-06 20:27 29.43442 33.27731 40081 ft 419 kts 283°
2026-05-06 20:27 29.45234 33.21379 40074 ft 418 kts 283°
2026-05-06 20:28 29.47022 33.15023 40080 ft 418 kts 283°
2026-05-06 20:28 29.48808 33.08665 40070 ft 419 kts 283°
2026-05-06 20:29 29.50593 33.02295 40064 ft 419 kts 283°
2026-05-06 20:29 29.52369 32.95955 39376 ft 414 kts 283°
2026-05-06 20:30 29.53246 32.92822 38328 ft 412 kts 284°
2026-05-06 20:30 29.55005 32.86500 35488 ft 420 kts 284°
2026-05-06 20:30 29.55900 32.83275 34041 ft 425 kts 285°
2026-05-06 20:31 29.56802 32.80026 32361 ft 429 kts 285°
2026-05-06 20:31 29.57712 32.76750 30773 ft 432 kts 285°
2026-05-06 20:31 29.58622 32.73477 29763 ft 423 kts 286°
2026-05-06 20:31 29.59494 32.70354 29304 ft 399 kts 286°
2026-05-06 20:32 29.60326 32.67362 28830 ft 391 kts 285°
2026-05-06 20:32 29.61082 32.64371 28339 ft 389 kts 283°
2026-05-06 20:32 29.61755 32.61371 27846 ft 386 kts 282°
2026-05-06 20:32 29.62394 32.58392 27354 ft 384 kts 282°
2026-05-06 20:33 29.63030 32.55418 26848 ft 382 kts 282°
2026-05-06 20:33 29.63670 32.52468 26331 ft 380 kts 283°
2026-05-06 20:33 29.64318 32.49535 25833 ft 378 kts 283°
2026-05-06 20:33 29.64969 32.46623 25343 ft 376 kts 283°
2026-05-06 20:34 29.65624 32.43714 24827 ft 373 kts 283°
2026-05-06 20:34 29.66276 32.40831 24318 ft 372 kts 283°
2026-05-06 20:34 29.66923 32.37966 23839 ft 370 kts 283°
2026-05-06 20:34 29.67569 32.35106 23303 ft 368 kts 283°
2026-05-06 20:35 29.68207 32.32271 22791 ft 365 kts 283°
2026-05-06 20:35 29.68841 32.29454 22298 ft 363 kts 283°
2026-05-06 20:35 29.69470 32.26655 21800 ft 360 kts 283°
2026-05-06 20:35 29.70093 32.23877 21310 ft 357 kts 283°
2026-05-06 20:36 29.70709 32.21127 20732 ft 352 kts 283°
2026-05-06 20:36 29.71314 32.18426 20335 ft 353 kts 283°
2026-05-06 20:36 29.71930 32.15674 19868 ft 349 kts 283°
2026-05-06 20:36 29.72534 32.12969 19396 ft 347 kts 283°
2026-05-06 20:37 29.73122 32.10334 18938 ft 344 kts 283°
2026-05-06 20:37 29.73723 32.07637 18451 ft 342 kts 283°
2026-05-06 20:37 29.74301 32.05036 17946 ft 339 kts 283°
2026-05-06 20:37 29.74887 32.02403 17461 ft 341 kts 283°
2026-05-06 20:38 29.75475 31.99755 16972 ft 341 kts 283°
2026-05-06 20:38 29.76068 31.97080 16494 ft 341 kts 283°
2026-05-06 20:38 29.76654 31.94439 15998 ft 340 kts 283°
2026-05-06 20:38 29.77232 31.91832 15509 ft 341 kts 283°
2026-05-06 20:39 29.77821 31.89199 15016 ft 341 kts 285°
2026-05-06 20:39 29.78711 31.86670 14549 ft 341 kts 298°
2026-05-06 20:39 29.79935 31.84330 14062 ft 342 kts 302°
2026-05-06 20:39 29.81283 31.82069 13525 ft 342 kts 304°
2026-05-06 20:40 29.82695 31.79855 12973 ft 343 kts 306°
2026-05-06 20:40 29.84124 31.77678 12515 ft 340 kts 307°
2026-05-06 20:40 29.85544 31.75525 12055 ft 337 kts 306°
2026-05-06 20:40 29.86958 31.73368 11548 ft 336 kts 306°
2026-05-06 20:41 29.88342 31.71214 11150 ft 332 kts 304°
2026-05-06 20:41 29.89441 31.68924 10930 ft 322 kts 293°
2026-05-06 20:41 29.90223 31.66547 10745 ft 312 kts 290°
2026-05-06 20:41 29.90915 31.64222 10575 ft 301 kts 289°
2026-05-06 20:42 29.91558 31.61997 10203 ft 285 kts 289°
2026-05-06 20:42 29.92172 31.59844 9265 ft 284 kts 289°
2026-05-06 20:42 29.92775 31.57710 8713 ft 271 kts 289°
2026-05-06 20:42 29.93334 31.55720 8463 ft 257 kts 289°
2026-05-06 20:43 29.93881 31.53766 8162 ft 253 kts 289°
2026-05-06 20:43 29.94419 31.51843 7876 ft 252 kts 290°
2026-05-06 20:43 29.94956 31.49921 7579 ft 252 kts 290°
2026-05-06 20:43 29.95494 31.47997 7264 ft 253 kts 289°
2026-05-06 20:44 29.96033 31.46066 6962 ft 253 kts 289°
2026-05-06 20:44 29.96573 31.44130 6653 ft 253 kts 289°
2026-05-06 20:44 29.97109 31.42195 6324 ft 254 kts 290°
2026-05-06 20:44 29.97645 31.40265 6010 ft 252 kts 289°
2026-05-06 20:45 29.98182 31.38337 5688 ft 251 kts 290°
2026-05-06 20:45 29.98719 31.36404 5305 ft 254 kts 289°
2026-05-06 20:45 29.99260 31.34457 4965 ft 255 kts 289°
2026-05-06 20:45 29.99799 31.32511 4626 ft 255 kts 289°
2026-05-06 20:46 30.00336 31.30566 4313 ft 254 kts 290°
2026-05-06 20:46 30.00870 31.28627 3978 ft 252 kts 290°
2026-05-06 20:46 30.01397 31.26719 3681 ft 248 kts 291°
2026-05-06 20:46 30.01908 31.24870 3534 ft 242 kts 292°
2026-05-06 20:47 30.02193 31.22982 3380 ft 240 kts 271°
2026-05-06 20:47 30.01652 31.21180 3193 ft 242 kts 234°
2026-05-06 20:47 30.00314 31.20051 2993 ft 240 kts 197°
2026-05-06 20:47 29.98684 31.19975 2749 ft 234 kts 161°
2026-05-06 20:48 29.97349 31.20895 2692 ft 221 kts 128°
2026-05-06 20:48 29.96626 31.22397 2692 ft 211 kts 97°
2026-05-06 20:48 29.96675 31.24031 2694 ft 200 kts 73°
2026-05-06 20:48 29.97206 31.25426 2691 ft 183 kts 52°
2026-05-06 20:49 29.97976 31.26527 2661 ft 170 kts 46°
2026-05-06 20:49 29.98744 31.27502 2623 ft 158 kts 45°
2026-05-06 20:49 29.99477 31.28415 2599 ft 154 kts 46°
2026-05-06 20:49 30.00205 31.29326 2608 ft 155 kts 46°
2026-05-06 20:50 30.00920 31.30251 2607 ft 155 kts 47°
2026-05-06 20:50 30.01629 31.31194 2607 ft 156 kts 47°
2026-05-06 20:50 30.02337 31.32138 2611 ft 156 kts 47°
2026-05-06 20:50 30.03047 31.33081 2604 ft 154 kts 47°
2026-05-06 20:51 30.03717 31.33965 2535 ft 139 kts 46°
2026-05-06 20:51 30.04338 31.34783 2304 ft 130 kts 46°
2026-05-06 20:51 30.04912 31.35543 2121 ft 123 kts 46°
2026-05-06 20:51 30.05473 31.36288 1967 ft 123 kts 47°
2026-05-06 20:52 30.06039 31.37042 1796 ft 124 kts 47°
2026-05-06 20:52 30.06603 31.37792 1634 ft 123 kts 47°
2026-05-06 20:52 30.07170 31.38536 1413 ft 123 kts 45°
2026-05-06 20:52 30.07724 31.39270 1166 ft 122 kts 46°
2026-05-06 20:53 30.08279 31.40014 948 ft 122 kts 47°
2026-05-06 20:53 30.08836 31.40754 728 ft 121 kts 45°
2026-05-06 20:53 30.09388 31.41471 525 ft 119 kts 44°
2026-05-06 20:53 30.09927 31.42190 406 ft 118 kts 44°
2026-05-06 20:54 30.10412 31.42830 377 ft 73 kts 50°
2026-05-06 20:54 30.10595 31.43074 379 ft 28 kts 49°
2026-05-06 20:54 30.10712 31.43227 377 ft 23 kts 48°
2026-05-06 20:54 30.10813 31.43357 379 ft 21 kts 48°
2026-05-06 20:55 30.10926 31.43465 377 ft 22 kts 34°
2026-05-06 20:55 30.11056 31.43547 378 ft 21 kts 23°
2026-05-06 20:55 30.11154 31.43594 378 ft 15 kts 17°
2026-05-06 20:55 30.11239 31.43553 378 ft 14 kts 311°
2026-05-06 20:56 30.11241 31.43467 378 ft 8 kts 251°
2026-05-06 20:56 30.11257 31.43412 378 ft 8 kts 310°
2026-05-06 20:56 30.11302 31.43363 378 ft 10 kts 318°
2026-05-06 20:56 30.11357 31.43308 378 ft 11 kts 319°
2026-05-06 20:57 30.11421 31.43245 378 ft 13 kts 319°
2026-05-06 20:57 30.11493 31.43174 378 ft 14 kts 319°
2026-05-06 20:57 30.11571 31.43096 378 ft 16 kts 319°
2026-05-06 20:57 30.11657 31.43011 379 ft 17 kts 319°
2026-05-06 20:58 30.11749 31.42920 379 ft 18 kts 320°
2026-05-06 20:58 30.11846 31.42824 379 ft 19 kts 319°
2026-05-06 20:58 30.11949 31.42722 379 ft 20 kts 319°
2026-05-06 20:58 30.12057 31.42615 376 ft 21 kts 319°
2026-05-06 20:59 30.12166 31.42507 379 ft 20 kts 317°
2026-05-06 20:59 30.12177 31.42368 379 ft 19 kts 234°
2026-05-06 20:59 30.12087 31.42247 379 ft 21 kts 229°
2026-05-06 20:59 30.11989 31.42117 379 ft 22 kts 229°
2026-05-06 21:00 30.11897 31.41994 379 ft 20 kts 229°
2026-05-06 21:00 30.11812 31.41879 379 ft 17 kts 229°
2026-05-06 21:00 30.11738 31.41780 379 ft 15 kts 229°
2026-05-06 21:00 30.11673 31.41693 379 ft 13 kts 229°
2026-05-06 21:01 30.11618 31.41618 379 ft 11 kts 229°
2026-05-06 21:01 30.11571 31.41555 379 ft 10 kts 229°
2026-05-06 21:01 30.11529 31.41499 379 ft 9 kts 229°
2026-05-06 21:01 30.11487 31.41443 379 ft 10 kts 229°
2026-05-06 21:02 30.11437 31.41378 379 ft 12 kts 224°
2026-05-06 21:02 30.11407 31.41297 379 ft 11 kts 282°
2026-05-06 21:02 30.11423 31.41213 379 ft 8 kts 251°
2026-05-06 21:02 30.11384 31.41145 379 ft 12 kts 227°
2026-05-06 21:03 30.11320 31.41066 379 ft 16 kts 227°
2026-05-06 21:03 30.11239 31.40959 379 ft 19 kts 230°
2026-05-06 21:03 30.11142 31.40831 379 ft 23 kts 229°
2026-05-06 21:03 30.11074 31.40712 379 ft 15 kts 262°
2026-05-06 21:04 30.11118 31.40641 378 ft 11 kts 321°
2026-05-06 21:04 30.11186 31.40579 378 ft 13 kts 321°
2026-05-06 21:04 30.11260 31.40505 378 ft 15 kts 318°
2026-05-06 21:04 30.11343 31.40424 378 ft 16 kts 320°
2026-05-06 21:05 30.11431 31.40335 378 ft 17 kts 319°
2026-05-06 21:05 30.11443 31.40227 378 ft 15 kts 227°
2026-05-06 21:05 30.11357 31.40182 378 ft 12 kts 153°
2026-05-06 21:05 30.11321 31.40194 378 ft 4 kts 189°
2026-05-06 21:06 30.11296 31.40176 378 ft 5 kts 222°
2026-05-06 21:06 30.11279 31.40159 378 ft 6 kts 216°
2026-05-06 21:06 30.11258 31.40142 378 ft 0 kts 215°
2026-05-06 21:06 30.11257 31.40142 378 ft 0 kts 215°